Regional Weather Roundup
Issued by NWS Sioux Falls, SD

Home | Current Version | Previous Version | Graphics & Text | Print | Product List | Glossary Off
Versions: 1 2 3 4 5 6 7 8 9 10 11 12 13 14 15 16 17 18 19 20 21 22 23 24 25 26 27 28 29 30 31 32 33 34 35 36 37 38 39 40 41 42 43 44 45 46 47 48 49 50

000
ASUS43 KFSD 261910
RWRFSD

WEATHER ROUNDUP FOR SE SOUTH DAKOTA/SW MINNESOTA/NW IOWA
NATIONAL WEATHER SERVICE SIOUX FALLS SD
200 PM CDT THU MAR 26 2015

NOTE: "FAIR" INDICATES FEW OR NO CLOUDS BELOW 12,000 FEET WITH NO
SIGNIFICANT WEATHER AND OR OBSTRUCTIONS TO VISIBILITY.


SDZ038>040-050-052>070-262000-
SOUTHEAST SOUTH DAKOTA

CITY           SKY/WX    TMP DP  RH WIND       PRES   REMARKS
CHAMBERLAIN    LGT SNOW  32  31  96 CALM      30.18R
HURON          CLOUDY    38  24  57 NE7       30.19S
MADISON        FAIR      36  23  60 N13       30.15F
MITCHELL       CLOUDY    39  23  52 N9        30.19S
SIOUX FALLS    CLOUDY    39  23  52 N8        30.15F
WINNER         LGT SNOW  33  30  88 NE13      30.15R VSB 1   WCI  24
YANKTON        CLOUDY    39  19  45 N7        30.17F
$$

MNZ071-072-080-081-089-090-097-098-262000-
SOUTHWEST MINNESOTA

CITY           SKY/WX    TMP DP  RH WIND       PRES   REMARKS
FAIRMONT       PTSUNNY   36  19  51 NW16      30.13S
JACKSON        CLOUDY    34  21  60 NW14      30.15S WCI  24
LUVERNE        CLOUDY    37  23  56 N13       30.16F
MARSHALL       CLOUDY    34  18  51 N21       30.18F WCI  22
MONTEVIDEO     PTSUNNY   34  21  60 N16       30.19S WCI  23
PIPESTONE      CLOUDY    34  21  60 NE8       30.14F WCI  27
REDWOOD FALLS  PTSUNNY   35  21  56 NW15G23   30.17S WCI  25
WINDOM         CLOUDY    36  21  55 NW16      30.15S
WORTHINGTON    CLOUDY    34  19  55 N14G21    30.16F WCI  24
$$

IAZ001>003-012>014-020>022-031-032-NEZ013-014-SDZ071-262000-
NORTHWEST IOWA

CITY           SKY/WX    TMP DP  RH WIND       PRES   REMARKS
CHEROKEE       CLOUDY    40  24  53 N14       30.15F
DENISON        PTSUNNY   43  23  45 N14       30.12F
ESTHERVILLE    CLOUDY    35  23  61 NW15      30.14F WCI  25
LE MARS        CLOUDY    41  23  48 N14       30.16F
ORANGE CITY    CLOUDY    41  25  52 NW12      30.15F
SHELDON        CLOUDY    37  25  60 N13       30.14S
SIOUX CITY     PTSUNNY   42  21  43 N12       30.17S
SPENCER        CLOUDY    38  23  55 N16       30.15F
STORM LAKE     PTSUNNY   41  23  48 N17       30.14F
$$

ABBREVIATIONS USED IN REMARKS
   TC - TEMPERATURE IN CELSIUS
  WCI - WIND CHILL INDEX
   HX - HEAT INDEX
  VSB - VISIBILITY




USA.gov is the U.S. government's official web portal to all federal, state and local government web resources and services.